DAL695 EHAM-CYYZ

Flight info

Callsign DAL695
Flight time N/A
Altitude 36000
Route BERGI L60 OTBED DCT ABLUC DCT OZRAT DCT WETFI DCT REVNU DCT RESNO/M080F380 NATA TUDEP/N0457F380 N530A MIILS/N0466F400 DCT VILRO DCT SAVEX Q806 TUKIR IMEBA9
Aircraft A339/H-SADE1E2E3GHIJ3J5M1P2RWXY/LB2D1

Departure

Time 2026-04-29 15:48
Airport Amsterdam Airport Schiphol (EHAM)

Arrival

Time N/A
Airport Toronto Pearson International Airport (CYYZ)
Time Latitude Longitude Altitude Speed Heading
2026-04-29 15:10 52.31201 4.76078 15 ft 0 kts 84°
2026-04-29 15:26 52.31200 4.76062 16 ft 2 kts 91°
2026-04-29 15:27 52.31201 4.76038 16 ft 2 kts 91°
2026-04-29 15:27 52.31201 4.76014 16 ft 2 kts 89°
2026-04-29 15:27 52.31201 4.75988 16 ft 2 kts 90°
2026-04-29 15:27 52.31201 4.75964 16 ft 2 kts 90°
2026-04-29 15:28 52.31201 4.75939 15 ft 2 kts 90°
2026-04-29 15:28 52.31201 4.75924 15 ft 2 kts 90°
2026-04-29 15:28 52.31201 4.75909 15 ft 0 kts 89°
2026-04-29 15:38 52.31204 4.75926 15 ft 3 kts 64°
2026-04-29 15:38 52.31249 4.75944 14 ft 12 kts 358°
2026-04-29 15:38 52.31361 4.75929 10 ft 16 kts 354°
2026-04-29 15:38 52.31435 4.75813 9 ft 15 kts 284°
2026-04-29 15:39 52.31437 4.75644 10 ft 14 kts 268°
2026-04-29 15:39 52.31430 4.75472 10 ft 15 kts 265°
2026-04-29 15:39 52.31421 4.75277 7 ft 18 kts 266°
2026-04-29 15:39 52.31412 4.75070 6 ft 19 kts 266°
2026-04-29 15:40 52.31405 4.74852 4 ft 19 kts 268°
2026-04-29 15:40 52.31400 4.74623 3 ft 20 kts 269°
2026-04-29 15:40 52.31397 4.74406 3 ft 17 kts 269°
2026-04-29 15:40 52.31446 4.74296 2 ft 11 kts 349°
2026-04-29 15:41 52.31531 4.74290 2 ft 13 kts
2026-04-29 15:41 52.31634 4.74297 1 ft 16 kts
2026-04-29 15:41 52.31749 4.74310 1 ft 16 kts
2026-04-29 15:41 52.31864 4.74324 1 ft 16 kts
2026-04-29 15:42 52.31978 4.74321 1 ft 16 kts 343°
2026-04-29 15:42 52.32033 4.74181 1 ft 15 kts 279°
2026-04-29 15:42 52.32042 4.74003 1 ft 15 kts 272°
2026-04-29 15:42 52.32046 4.73828 3 ft 14 kts 272°
2026-04-29 15:43 52.32051 4.73668 4 ft 14 kts 273°
2026-04-29 15:43 52.32057 4.73502 4 ft 14 kts 276°
2026-04-29 15:43 52.32098 4.73348 4 ft 15 kts 311°
2026-04-29 15:43 52.32196 4.73201 1 ft 22 kts 320°
2026-04-29 15:44 52.32324 4.73020 1 ft 25 kts 319°
2026-04-29 15:44 52.32453 4.72837 1 ft 23 kts 319°
2026-04-29 15:44 52.32574 4.72672 3 ft 21 kts 321°
2026-04-29 15:44 52.32681 4.72512 4 ft 20 kts 314°
2026-04-29 15:45 52.32773 4.72342 4 ft 19 kts 311°
2026-04-29 15:45 52.32864 4.72175 4 ft 19 kts 311°
2026-04-29 15:45 52.32952 4.72009 3 ft 19 kts 311°
2026-04-29 15:45 52.33045 4.71838 1 ft 20 kts 312°
2026-04-29 15:46 52.33131 4.71658 1 ft 19 kts 297°
2026-04-29 15:46 52.33112 4.71463 1 ft 18 kts 229°
2026-04-29 15:46 52.33017 4.71324 1 ft 18 kts 221°
2026-04-29 15:46 52.32920 4.71186 1 ft 17 kts 222°
2026-04-29 15:47 52.32865 4.71026 1 ft 16 kts 265°
2026-04-29 15:47 52.32893 4.70902 1 ft 10 kts 327°
2026-04-29 15:47 52.32925 4.70890 1 ft 1 kts 355°
2026-04-29 15:47 52.33096 4.70894 1 ft 55 kts
2026-04-29 15:48 52.33672 4.70973 1 ft 110 kts
2026-04-29 15:48 52.34604 4.71056 1 ft 155 kts
2026-04-29 15:48 52.35735 4.71165 327 ft 168 kts
2026-04-29 15:48 52.36898 4.71264 834 ft 170 kts 11°
2026-04-29 15:49 52.38065 4.71376 1403 ft 171 kts 11°
2026-04-29 15:49 52.39252 4.71490 1889 ft 177 kts 13°
2026-04-29 15:49 52.40536 4.71635 2217 ft 193 kts 12°
2026-04-29 15:49 52.41938 4.71792 2535 ft 211 kts 11°
2026-04-29 15:50 52.43464 4.71952 2878 ft 229 kts 11°
2026-04-29 15:50 52.45119 4.72117 3244 ft 247 kts 10°
2026-04-29 15:50 52.46855 4.72281 3755 ft 258 kts
2026-04-29 15:50 52.48650 4.72445 4486 ft 260 kts
2026-04-29 15:51 52.50449 4.72610 5238 ft 261 kts
2026-04-29 15:51 52.52267 4.72783 5940 ft 263 kts
2026-04-29 15:51 52.54080 4.72957 6645 ft 265 kts
2026-04-29 15:51 52.55930 4.73136 7338 ft 267 kts
2026-04-29 15:52 52.57777 4.73179 7950 ft 275 kts 355°
2026-04-29 15:52 52.59567 4.71954 8553 ft 290 kts 326°
2026-04-29 15:52 52.60907 4.69437 9240 ft 298 kts 308°
2026-04-29 15:52 52.62071 4.66593 9919 ft 300 kts 308°
2026-04-29 15:53 52.63231 4.63756 10535 ft 302 kts 308°
2026-04-29 15:53 52.64427 4.60867 10915 ft 314 kts 308°
2026-04-29 15:53 52.65682 4.57865 11204 ft 329 kts 308°
2026-04-29 15:53 52.67020 4.54677 11551 ft 342 kts 308°
2026-04-29 15:54 52.68366 4.51463 12121 ft 347 kts 308°
2026-04-29 15:54 52.69731 4.48202 12770 ft 348 kts 308°
2026-04-29 15:54 52.71110 4.44903 13383 ft 351 kts 309°
2026-04-29 15:54 52.72485 4.41614 14003 ft 354 kts 309°
2026-04-29 15:55 52.73873 4.38207 14591 ft 359 kts 305°
2026-04-29 15:55 52.75054 4.34558 15139 ft 365 kts 297°
2026-04-29 15:55 52.75984 4.30653 15678 ft 370 kts 292°
2026-04-29 15:55 52.76806 4.26635 16244 ft 374 kts 291°
2026-04-29 15:56 52.77612 4.22565 16821 ft 378 kts 291°
2026-04-29 15:56 52.78427 4.18438 17390 ft 381 kts 291°
2026-04-29 15:56 52.79260 4.14251 17949 ft 385 kts 291°
2026-04-29 15:56 52.80100 4.10036 18493 ft 389 kts 291°
2026-04-29 15:57 52.80945 4.05797 19024 ft 393 kts 291°
2026-04-29 15:57 52.81797 4.01525 19532 ft 397 kts 291°
2026-04-29 15:57 52.82661 3.97195 20068 ft 400 kts 290°
2026-04-29 15:57 52.83524 3.92855 20577 ft 403 kts 291°
2026-04-29 15:58 52.84402 3.88430 21063 ft 407 kts 290°
2026-04-29 15:58 52.85279 3.84009 21547 ft 410 kts 290°
2026-04-29 15:58 52.86170 3.79495 22033 ft 413 kts 290°
2026-04-29 15:58 52.87052 3.75021 22496 ft 416 kts 290°
2026-04-29 15:59 52.87949 3.70460 22960 ft 419 kts 290°
2026-04-29 15:59 52.88856 3.65830 23411 ft 421 kts 290°
2026-04-29 15:59 52.89749 3.61277 23836 ft 424 kts 290°
2026-04-29 15:59 52.90657 3.56629 24273 ft 427 kts 290°
2026-04-29 16:00 52.91563 3.51977 24705 ft 429 kts 290°
2026-04-29 16:00 52.92489 3.47214 25127 ft 432 kts 290°
2026-04-29 16:00 52.93401 3.42512 25539 ft 435 kts 290°
2026-04-29 16:00 52.94320 3.37761 25952 ft 437 kts 290°
2026-04-29 16:01 52.95246 3.32969 26353 ft 440 kts 289°
2026-04-29 16:01 52.96183 3.28101 26726 ft 442 kts 289°
2026-04-29 16:01 52.97109 3.23274 27096 ft 445 kts 289°
2026-04-29 16:01 52.98039 3.18414 27453 ft 447 kts 289°
2026-04-29 16:02 52.98982 3.13472 27815 ft 450 kts 289°
2026-04-29 16:02 52.99919 3.08558 28171 ft 452 kts 289°
2026-04-29 16:02 53.00868 3.03561 28535 ft 454 kts 289°
2026-04-29 16:02 53.01805 2.98609 28889 ft 456 kts 289°
2026-04-29 16:03 53.02750 2.93608 29244 ft 457 kts 289°
2026-04-29 16:03 53.03706 2.88536 29586 ft 459 kts 289°
2026-04-29 16:03 53.04659 2.83471 29900 ft 461 kts 289°
2026-04-29 16:03 53.05608 2.78407 30196 ft 464 kts 289°
2026-04-29 16:04 53.06567 2.73278 30494 ft 466 kts 289°
2026-04-29 16:04 53.07523 2.68145 30776 ft 469 kts 289°
2026-04-29 16:04 53.08485 2.62972 31069 ft 470 kts 288°
2026-04-29 16:04 53.09442 2.57807 31343 ft 473 kts 289°
2026-04-29 16:05 53.10344 2.52533 31611 ft 475 kts 285°
2026-04-29 16:05 53.11059 2.47204 31883 ft 477 kts 282°
2026-04-29 16:05 53.11595 2.41715 32159 ft 479 kts 279°
2026-04-29 16:05 53.12044 2.36284 32432 ft 481 kts 278°
2026-04-29 16:06 53.12484 2.30778 32677 ft 483 kts 277°
2026-04-29 16:06 53.12923 2.25259 32933 ft 484 kts 277°
2026-04-29 16:06 53.13368 2.19652 33175 ft 486 kts 277°
2026-04-29 16:06 53.13809 2.14115 33411 ft 487 kts 277°
2026-04-29 16:07 53.14254 2.08510 33657 ft 489 kts 277°
2026-04-29 16:07 53.14547 2.04802 33865 ft 488 kts 277°
2026-04-29 16:07 53.15132 1.97396 34318 ft 487 kts 277°
2026-04-29 16:07 53.15565 1.91869 34656 ft 486 kts 277°
2026-04-29 16:08 53.16002 1.86268 34890 ft 487 kts 277°
2026-04-29 16:08 53.16436 1.80667 35078 ft 488 kts 277°
2026-04-29 16:08 53.16861 1.75137 35273 ft 489 kts 277°
2026-04-29 16:08 53.17290 1.69528 35467 ft 489 kts 277°
2026-04-29 16:09 53.17716 1.63908 35673 ft 490 kts 278°
2026-04-29 16:09 53.18136 1.58348 35864 ft 490 kts 277°
2026-04-29 16:09 53.18564 1.52659 36028 ft 492 kts 277°
2026-04-29 16:09 53.18981 1.47069 36177 ft 493 kts 278°
2026-04-29 16:10 53.19403 1.41377 36342 ft 494 kts 278°
2026-04-29 16:10 53.20233 1.30080 36393 ft 495 kts 277°
2026-04-29 16:11 53.21059 1.18697 36396 ft 496 kts 276°
2026-04-29 16:11 53.21871 1.07333 36394 ft 496 kts 276°
2026-04-29 16:12 53.22669 0.95981 36399 ft 496 kts 276°
2026-04-29 16:12 53.23461 0.84581 36399 ft 496 kts 276°
2026-04-29 16:13 53.24237 0.73258 36403 ft 496 kts 276°
2026-04-29 16:13 53.25012 0.61781 36400 ft 496 kts 276°
2026-04-29 16:14 53.25769 0.50398 36705 ft 497 kts 276°
2026-04-29 16:14 53.26144 0.44709 36516 ft 495 kts 276°
2026-04-29 16:14 53.26515 0.39049 36440 ft 496 kts 276°
2026-04-29 16:15 53.27253 0.27614 36406 ft 496 kts 275°
2026-04-29 16:15 53.27979 0.16199 36399 ft 496 kts 275°
2026-04-29 16:16 53.28735 0.04848 36400 ft 496 kts 277°
2026-04-29 16:16 53.30028 -0.06465 36394 ft 498 kts 282°
2026-04-29 16:17 53.31523 -0.17722 36391 ft 498 kts 282°
2026-04-29 16:17 53.33015 -0.29035 36385 ft 498 kts 282°
2026-04-29 16:18 53.34475 -0.40266 36389 ft 498 kts 282°
2026-04-29 16:18 53.35930 -0.51578 36384 ft 499 kts 282°
2026-04-29 16:19 53.37369 -0.62873 36390 ft 499 kts 282°
2026-04-29 16:19 53.38800 -0.74182 36388 ft 500 kts 281°
2026-04-29 16:20 53.40222 -0.85531 36384 ft 500 kts 281°
2026-04-29 16:20 53.41638 -0.96920 36383 ft 500 kts 281°
2026-04-29 16:21 53.43042 -1.08297 36451 ft 501 kts 281°
2026-04-29 16:21 53.43740 -1.13993 36203 ft 501 kts 281°
2026-04-29 16:21 53.44433 -1.19674 36296 ft 502 kts 281°
2026-04-29 16:22 53.45820 -1.31109 36348 ft 503 kts 280°
2026-04-29 16:22 53.47198 -1.42577 36355 ft 503 kts 280°
2026-04-29 16:23 53.48559 -1.54010 36351 ft 504 kts 280°
2026-04-29 16:23 53.49917 -1.65494 36354 ft 504 kts 279°
2026-04-29 16:24 53.51267 -1.77017 36341 ft 504 kts 279°
2026-04-29 16:24 53.52607 -1.88549 36340 ft 505 kts 279°
2026-04-29 16:25 53.53934 -2.00098 36341 ft 504 kts 279°
2026-04-29 16:25 53.55241 -2.11569 36342 ft 505 kts 279°
2026-04-29 16:26 53.56551 -2.23144 36347 ft 505 kts 279°
2026-04-29 16:26 53.57848 -2.34741 36347 ft 505 kts 279°
2026-04-29 16:27 53.59130 -2.46294 36353 ft 506 kts 279°
2026-04-29 16:27 53.60408 -2.57941 36352 ft 507 kts 279°
2026-04-29 16:28 53.61673 -2.69557 36347 ft 507 kts 278°
2026-04-29 16:28 53.62926 -2.81162 36348 ft 507 kts 279°
2026-04-29 16:29 53.64167 -2.92778 36350 ft 506 kts 278°
2026-04-29 16:29 53.65401 -3.04459 36343 ft 507 kts 279°
2026-04-29 16:30 53.66622 -3.16117 36332 ft 507 kts 278°
2026-04-29 16:30 53.67828 -3.27737 36333 ft 508 kts 278°
2026-04-29 16:31 53.69029 -3.39429 36323 ft 509 kts 278°
2026-04-29 16:31 53.70217 -3.51148 36329 ft 509 kts 278°
2026-04-29 16:32 53.71399 -3.62890 36317 ft 509 kts 278°
2026-04-29 16:32 53.72569 -3.74624 36313 ft 509 kts 278°
2026-04-29 16:33 53.74301 -3.92238 36303 ft 509 kts 278°
2026-04-29 16:33 53.75439 -4.03981 36304 ft 509 kts 277°
2026-04-29 16:34 53.76568 -4.15742 36310 ft 510 kts 278°
2026-04-29 16:34 53.77686 -4.27501 36316 ft 510 kts 277°
2026-04-29 16:35 53.78796 -4.39339 36317 ft 510 kts 278°
2026-04-29 16:35 53.79833 -4.51157 36322 ft 509 kts 275°
2026-04-29 16:36 53.80341 -4.63012 36319 ft 509 kts 271°
2026-04-29 16:36 53.80719 -4.74942 36320 ft 509 kts 271°
2026-04-29 16:37 53.81105 -4.86843 36320 ft 510 kts 271°
2026-04-29 16:37 53.81417 -4.96731 36324 ft 509 kts 271°
2026-04-29 16:38 53.81847 -5.10672 36316 ft 509 kts 271°
2026-04-29 16:38 53.82199 -5.22550 36313 ft 511 kts 271°
2026-04-29 16:39 53.82544 -5.34560 36312 ft 511 kts 271°
2026-04-29 16:39 53.83014 -5.46454 36313 ft 512 kts 276°
2026-04-29 16:40 53.84232 -5.58272 36314 ft 513 kts 283°
2026-04-29 16:40 53.86044 -5.69899 36313 ft 513 kts 284°
2026-04-29 16:41 53.87910 -5.81550 36317 ft 514 kts 284°
2026-04-29 16:41 53.89740 -5.93179 36316 ft 514 kts 284°
2026-04-29 16:42 53.91563 -6.04936 36319 ft 515 kts 284°
2026-04-29 16:42 53.93357 -6.16587 36330 ft 515 kts 284°
2026-04-29 16:43 53.95149 -6.28334 36328 ft 515 kts 284°
2026-04-29 16:43 53.96925 -6.40055 36328 ft 516 kts 284°
2026-04-29 16:44 53.98696 -6.51838 36322 ft 517 kts 284°
2026-04-29 16:44 54.00458 -6.63636 36313 ft 516 kts 284°
2026-04-29 16:45 54.02201 -6.75390 36308 ft 517 kts 283°
2026-04-29 16:45 54.03938 -6.87202 36303 ft 518 kts 283°
2026-04-29 16:46 54.05664 -6.99005 36303 ft 517 kts 283°
2026-04-29 16:46 54.07390 -7.10929 36301 ft 517 kts 284°
2026-04-29 16:47 54.09087 -7.22745 36303 ft 517 kts 284°
2026-04-29 16:47 54.10778 -7.34582 36299 ft 518 kts 283°
2026-04-29 16:48 54.12455 -7.46433 36301 ft 517 kts 284°
2026-04-29 16:48 54.14130 -7.58344 36299 ft 517 kts 284°
2026-04-29 16:49 54.15785 -7.70218 36293 ft 517 kts 283°
2026-04-29 16:49 54.17421 -7.82030 36291 ft 516 kts 283°
2026-04-29 16:50 54.19055 -7.93938 36285 ft 517 kts 283°
2026-04-29 16:50 54.20671 -8.05815 36289 ft 516 kts 283°
2026-04-29 16:51 54.22275 -8.17699 36284 ft 516 kts 283°
2026-04-29 16:51 54.23875 -8.29650 36286 ft 516 kts 283°
2026-04-29 16:52 54.25447 -8.41486 36293 ft 514 kts 283°
2026-04-29 16:52 54.27022 -8.53420 36295 ft 515 kts 283°
2026-04-29 16:53 54.28576 -8.65309 36295 ft 515 kts 283°
2026-04-29 16:53 54.30113 -8.77163 36295 ft 515 kts 283°
2026-04-29 16:54 54.31646 -8.89091 36299 ft 515 kts 282°
2026-04-29 16:54 54.33166 -9.01030 36296 ft 514 kts 282°
2026-04-29 16:55 54.34673 -9.12949 36293 ft 513 kts 283°
2026-04-29 16:55 54.36156 -9.24791 36283 ft 513 kts 283°
2026-04-29 16:56 54.37634 -9.36682 36284 ft 513 kts 283°
2026-04-29 16:56 54.39101 -9.48597 36283 ft 511 kts 283°
2026-04-29 16:57 54.40556 -9.60497 36277 ft 511 kts 283°
2026-04-29 16:57 54.41989 -9.72340 36280 ft 510 kts 282°
2026-04-29 16:58 54.43420 -9.84253 36270 ft 509 kts 282°
2026-04-29 16:58 54.44830 -9.96107 36268 ft 509 kts 282°
2026-04-29 16:59 54.46227 -10.07970 36278 ft 509 kts 282°
2026-04-29 16:59 54.47678 -10.19770 36278 ft 508 kts 284°
2026-04-29 17:00 54.49218 -10.31521 36274 ft 507 kts 284°
2026-04-29 17:00 54.50756 -10.43360 36279 ft 507 kts 284°
2026-04-29 17:01 54.52260 -10.55119 36284 ft 507 kts 284°
2026-04-29 17:01 54.53750 -10.66885 36282 ft 506 kts 283°
2026-04-29 17:02 54.55235 -10.78711 36288 ft 505 kts 283°
2026-04-29 17:02 54.56695 -10.90458 36287 ft 506 kts 283°
2026-04-29 17:03 54.58150 -11.02252 36287 ft 505 kts 283°
2026-04-29 17:03 54.59591 -11.14062 36281 ft 504 kts 283°
2026-04-29 17:04 54.61014 -11.25802 36292 ft 504 kts 283°
2026-04-29 17:04 54.62433 -11.37606 36292 ft 503 kts 283°
2026-04-29 17:05 54.63829 -11.49340 36284 ft 503 kts 283°
2026-04-29 17:05 54.65226 -11.61157 36296 ft 502 kts 283°
2026-04-29 17:06 54.66601 -11.72907 36293 ft 501 kts 282°
2026-04-29 17:06 54.67959 -11.84626 36293 ft 501 kts 282°
2026-04-29 17:07 54.69088 -11.94454 36303 ft 500 kts 282°
2026-04-29 17:07 54.69976 -12.02235 36580 ft 499 kts 282°
2026-04-29 17:07 54.70647 -12.08140 36423 ft 498 kts 282°
2026-04-29 17:08 54.71306 -12.13973 36046 ft 498 kts 282°
2026-04-29 17:08 54.71963 -12.19821 36462 ft 499 kts 282°
2026-04-29 17:08 54.73273 -12.31520 36312 ft 498 kts 282°
2026-04-29 17:09 54.74572 -12.43243 36288 ft 498 kts 282°
2026-04-29 17:09 54.75859 -12.54971 36287 ft 496 kts 282°
2026-04-29 17:10 54.77124 -12.66625 36279 ft 496 kts 281°
2026-04-29 17:10 54.78389 -12.78375 36286 ft 497 kts 281°
2026-04-29 17:11 54.79636 -12.90072 36288 ft 496 kts 281°
2026-04-29 17:11 54.80871 -13.01770 36285 ft 496 kts 281°
2026-04-29 17:12 54.82095 -13.13485 36282 ft 496 kts 281°
2026-04-29 17:12 54.82904 -13.21264 36283 ft 495 kts 281°
2026-04-29 17:13 54.84503 -13.36838 36279 ft 494 kts 281°
2026-04-29 17:13 54.85685 -13.48486 36283 ft 492 kts 281°
2026-04-29 17:14 54.86859 -13.60178 36283 ft 492 kts 281°
2026-04-29 17:14 54.88015 -13.71787 36283 ft 491 kts 279°
2026-04-29 17:15 54.89161 -13.83431 36285 ft 490 kts 279°
2026-04-29 17:15 54.90297 -13.95080 36282 ft 490 kts 279°
2026-04-29 17:16 54.91413 -14.06658 36286 ft 490 kts 279°
2026-04-29 17:16 54.92525 -14.18320 36287 ft 489 kts 279°
2026-04-29 17:17 54.93623 -14.29938 36288 ft 488 kts 279°
2026-04-29 17:17 54.94702 -14.41475 36287 ft 487 kts 279°
2026-04-29 17:18 54.95773 -14.53057 36287 ft 486 kts 279°
2026-04-29 17:18 54.96825 -14.64564 36286 ft 486 kts 279°
2026-04-29 17:19 54.97879 -14.76210 36285 ft 486 kts 278°
2026-04-29 17:19 54.98907 -14.87709 36288 ft 486 kts 278°
2026-04-29 17:20 54.99860 -14.99372 36286 ft 486 kts 275°
2026-04-29 17:20 55.00232 -15.10969 36276 ft 485 kts 271°
2026-04-29 17:21 55.00441 -15.22650 36266 ft 483 kts 271°
2026-04-29 17:21 55.00642 -15.34281 36265 ft 483 kts 271°
2026-04-29 17:22 55.00838 -15.45897 36264 ft 482 kts 271°
2026-04-29 17:22 55.01026 -15.57516 36264 ft 481 kts 271°
2026-04-29 17:23 55.01203 -15.69091 36263 ft 480 kts 270°
2026-04-29 17:23 55.01370 -15.80712 36264 ft 480 kts 270°
2026-04-29 17:24 55.01524 -15.92254 36263 ft 480 kts 270°
2026-04-29 17:24 55.01599 -15.98067 36001 ft 479 kts 270°
2026-04-29 17:24 55.01670 -16.03844 36144 ft 480 kts 270°
2026-04-29 17:25 55.01802 -16.15333 36506 ft 479 kts 270°
2026-04-29 17:25 55.01865 -16.21129 36337 ft 477 kts 270°
2026-04-29 17:25 55.01924 -16.26879 36284 ft 476 kts 270°
2026-04-29 17:26 55.02034 -16.38350 36257 ft 475 kts 270°
2026-04-29 17:26 55.02134 -16.49837 36253 ft 475 kts 270°
2026-04-29 17:27 55.02223 -16.61232 36251 ft 475 kts 270°
2026-04-29 17:27 55.02301 -16.72725 36248 ft 473 kts 269°
2026-04-29 17:28 55.02368 -16.84091 36247 ft 472 kts 269°
2026-04-29 17:28 55.02423 -16.95463 36244 ft 471 kts 269°
2026-04-29 17:29 55.02468 -17.06822 36244 ft 471 kts 269°
2026-04-29 17:29 55.02499 -17.16283 36249 ft 471 kts 269°
2026-04-29 17:30 55.02529 -17.29496 36257 ft 470 kts 269°
2026-04-29 17:30 55.02545 -17.40831 36257 ft 469 kts 268°
2026-04-29 17:31 55.02548 -17.52163 36253 ft 468 kts 268°
2026-04-29 17:31 55.02539 -17.63474 36253 ft 468 kts 268°
2026-04-29 17:32 55.02521 -17.74717 36247 ft 467 kts 268°
2026-04-29 17:32 55.02493 -17.85944 36247 ft 466 kts 267°
2026-04-29 17:33 55.02455 -17.97188 36246 ft 465 kts 267°
2026-04-29 17:33 55.02408 -18.08376 36243 ft 465 kts 267°
2026-04-29 17:34 55.02349 -18.19615 36238 ft 464 kts 267°
2026-04-29 17:34 55.02280 -18.30778 36237 ft 464 kts 267°
2026-04-29 17:35 55.02157 -18.47582 36233 ft 464 kts 267°
2026-04-29 17:35 55.02111 -18.53159 36039 ft 464 kts 267°
2026-04-29 17:36 55.02061 -18.58838 36151 ft 465 kts 267°
2026-04-29 17:36 55.01957 -18.70034 36207 ft 465 kts 266°
2026-04-29 17:37 55.01842 -18.81198 36219 ft 465 kts 266°
2026-04-29 17:37 55.01717 -18.92448 36223 ft 465 kts 266°
2026-04-29 17:38 55.01580 -19.03677 36224 ft 466 kts 266°
2026-04-29 17:38 55.01433 -19.14924 36220 ft 465 kts 266°
2026-04-29 17:39 55.01278 -19.26059 36217 ft 464 kts 266°
2026-04-29 17:39 55.01112 -19.37267 36213 ft 463 kts 266°
2026-04-29 17:40 55.00935 -19.48435 36212 ft 463 kts 266°
2026-04-29 17:40 55.00749 -19.59616 36210 ft 463 kts 266°
2026-04-29 17:41 55.00554 -19.70691 36208 ft 463 kts 265°
2026-04-29 17:41 55.00349 -19.81871 36207 ft 462 kts 265°
2026-04-29 17:42 55.00133 -19.92966 36206 ft 461 kts 265°
2026-04-29 17:42 55.00156 -20.04126 36206 ft 463 kts 270°
2026-04-29 17:43 55.00586 -20.15258 36201 ft 462 kts 271°
2026-04-29 17:43 55.01031 -20.26398 36199 ft 461 kts 271°
2026-04-29 17:44 55.01463 -20.37493 36200 ft 461 kts 271°
2026-04-29 17:44 55.01879 -20.48525 36199 ft 460 kts 271°
2026-04-29 17:45 55.02284 -20.59578 36202 ft 459 kts 271°
2026-04-29 17:45 55.02680 -20.70638 36204 ft 458 kts 270°
2026-04-29 17:46 55.03064 -20.81678 36204 ft 457 kts 270°
2026-04-29 17:46 55.03435 -20.92647 36204 ft 455 kts 270°
2026-04-29 17:47 55.03798 -21.03630 36198 ft 454 kts 270°
2026-04-29 17:47 55.04148 -21.14532 36196 ft 453 kts 270°
2026-04-29 17:48 55.04487 -21.25424 36195 ft 453 kts 270°
2026-04-29 17:48 55.04818 -21.36300 36192 ft 452 kts 270°
2026-04-29 17:49 55.05139 -21.47230 36192 ft 452 kts 270°
2026-04-29 17:49 55.05451 -21.58126 36185 ft 452 kts 269°
2026-04-29 17:49 55.05602 -21.63554 36420 ft 452 kts 269°
2026-04-29 17:50 55.05751 -21.69029 36263 ft 450 kts 269°
2026-04-29 17:50 55.06040 -21.79863 36194 ft 449 kts 269°
2026-04-29 17:51 55.06319 -21.90694 36271 ft 449 kts 269°
2026-04-29 17:51 55.06588 -22.01508 36194 ft 447 kts 269°
2026-04-29 17:52 55.06849 -22.12306 36177 ft 446 kts 268°
2026-04-29 17:52 55.07098 -22.23082 36173 ft 446 kts 268°
2026-04-29 17:52 55.07218 -22.28416 35943 ft 446 kts 268°
2026-04-29 17:53 55.07339 -22.33848 36071 ft 447 kts 268°
2026-04-29 17:53 55.07570 -22.44656 36151 ft 448 kts 268°
2026-04-29 17:54 55.07791 -22.55452 36157 ft 449 kts 268°
2026-04-29 17:54 55.08004 -22.66299 36151 ft 448 kts 267°
2026-04-29 17:55 55.08206 -22.77106 36145 ft 448 kts 267°
2026-04-29 17:55 55.08399 -22.87946 36144 ft 447 kts 267°
2026-04-29 17:56 55.08581 -22.98654 36140 ft 445 kts 266°
2026-04-29 17:56 55.08754 -23.09428 36132 ft 446 kts 266°
2026-04-29 17:57 55.08918 -23.20184 36132 ft 445 kts 266°
2026-04-29 17:57 55.09072 -23.30979 36130 ft 445 kts 266°
2026-04-29 17:58 55.09216 -23.41769 36133 ft 445 kts 266°
2026-04-29 17:58 55.09352 -23.52490 36134 ft 444 kts 266°
2026-04-29 17:59 55.09476 -23.63191 36135 ft 444 kts 266°
2026-04-29 17:59 55.09592 -23.73925 36138 ft 443 kts 265°
2026-04-29 18:00 55.09697 -23.84631 36133 ft 442 kts 265°
2026-04-29 18:00 55.09793 -23.95328 36136 ft 441 kts 265°
2026-04-29 18:01 55.09880 -24.05976 36139 ft 440 kts 265°
2026-04-29 18:01 55.09958 -24.16606 36143 ft 440 kts 265°
2026-04-29 18:02 55.10023 -24.27188 36140 ft 440 kts 265°
2026-04-29 18:02 55.10085 -24.37812 36144 ft 439 kts 265°
2026-04-29 18:03 55.10135 -24.48424 36148 ft 438 kts 264°
2026-04-29 18:03 55.10174 -24.59026 36150 ft 437 kts 264°
2026-04-29 18:04 55.10205 -24.69540 36158 ft 436 kts 263°
2026-04-29 18:04 55.10227 -24.80067 36156 ft 435 kts 263°
2026-04-29 18:05 55.10239 -24.90565 36160 ft 434 kts 263°
2026-04-29 18:05 55.10242 -25.01077 36162 ft 434 kts 263°
2026-04-29 18:06 55.10236 -25.11561 36162 ft 433 kts 263°
2026-04-29 18:06 55.10220 -25.22001 36178 ft 433 kts 263°
2026-04-29 18:07 55.10197 -25.32443 36184 ft 433 kts 263°
2026-04-29 18:07 55.10165 -25.42882 36177 ft 433 kts 263°
2026-04-29 18:08 55.10124 -25.53319 36184 ft 432 kts 263°
2026-04-29 18:08 55.10074 -25.63782 36183 ft 432 kts 263°
2026-04-29 18:09 55.10015 -25.74230 36184 ft 432 kts 262°
2026-04-29 18:09 55.09946 -25.84625 36189 ft 432 kts 262°
2026-04-29 18:10 55.09871 -25.95024 36194 ft 431 kts 262°
2026-04-29 18:10 55.09786 -26.05459 36183 ft 431 kts 262°
2026-04-29 18:11 55.09692 -26.15871 36173 ft 431 kts 262°
2026-04-29 18:11 55.09589 -26.26228 36176 ft 430 kts 262°
2026-04-29 18:12 55.09478 -26.36604 36175 ft 429 kts 262°
2026-04-29 18:12 55.09358 -26.46989 36173 ft 429 kts 262°
2026-04-29 18:13 55.09228 -26.57341 36194 ft 429 kts 262°
2026-04-29 18:13 55.09089 -26.67703 36158 ft 428 kts 261°
2026-04-29 18:14 55.08941 -26.78102 36150 ft 429 kts 261°
2026-04-29 18:14 55.08787 -26.88450 36168 ft 428 kts 261°
2026-04-29 18:15 55.08623 -26.98746 36182 ft 429 kts 261°
2026-04-29 18:15 55.08448 -27.09131 36159 ft 430 kts 261°
2026-04-29 18:16 55.08266 -27.19537 36178 ft 429 kts 261°
2026-04-29 18:16 55.08077 -27.29859 36181 ft 429 kts 261°
2026-04-29 18:17 55.07874 -27.40304 36189 ft 431 kts 261°
2026-04-29 18:17 55.07664 -27.50643 36207 ft 430 kts 261°
2026-04-29 18:18 55.07449 -27.61037 36184 ft 430 kts 261°
2026-04-29 18:18 55.07222 -27.71371 36207 ft 429 kts 260°
2026-04-29 18:19 55.06986 -27.81763 36219 ft 430 kts 261°
2026-04-29 18:19 55.06741 -27.92189 36192 ft 430 kts 261°
2026-04-29 18:20 55.06489 -28.02512 36193 ft 430 kts 261°
2026-04-29 18:20 55.06227 -28.12899 36204 ft 430 kts 261°
2026-04-29 18:21 55.05958 -28.23306 36199 ft 430 kts 261°
2026-04-29 18:21 55.05677 -28.33710 36202 ft 431 kts 261°
2026-04-29 18:22 55.05387 -28.44115 36202 ft 431 kts 261°
2026-04-29 18:22 55.05092 -28.54452 36166 ft 431 kts 261°
2026-04-29 18:23 55.04784 -28.64821 36205 ft 432 kts 261°
2026-04-29 18:23 55.04468 -28.75242 36441 ft 432 kts 261°
2026-04-29 18:23 55.04308 -28.80443 36322 ft 432 kts 261°
2026-04-29 18:24 55.04148 -28.85618 36287 ft 430 kts 261°
2026-04-29 18:24 55.03816 -28.95997 36218 ft 429 kts 261°
2026-04-29 18:25 55.03474 -29.06330 36230 ft 429 kts 261°
2026-04-29 18:25 55.03125 -29.16628 36235 ft 430 kts 261°
2026-04-29 18:26 55.02766 -29.26989 36230 ft 429 kts 261°
2026-04-29 18:26 55.02396 -29.37374 36232 ft 431 kts 262°
2026-04-29 18:27 55.02023 -29.47680 36227 ft 430 kts 262°
2026-04-29 18:27 55.01637 -29.58052 36218 ft 431 kts 262°
2026-04-29 18:28 55.01243 -29.68413 36226 ft 430 kts 261°
2026-04-29 18:28 55.00841 -29.78780 36238 ft 431 kts 262°
2026-04-29 18:29 55.00428 -29.89178 36231 ft 431 kts 262°